Orbital Elements at Epoch 2459200.5 (2020-Dec-17.0) TDB
Reference: JPL 13 (heliocentric ecliptic J2000)
Element | Value | Uncertainty (1-sigma) | Units |
e | .07784218192106092 | 6.7924e-08 | |
a | 2.807937493486844 | 3.3426e-08 | au |
q | 2.589361512295873 | 1.8958e-07 | au |
i | 3.142274070173459 | 6.4067e-06 | deg |
node | 200.5895411633795 | 0.00011512 | deg |
peri | 105.0156161388923 | 0.00012259 | deg |
M | 123.2673595912677 | 3.9967e-05 | deg |
tp | 2458612.028853949197 (2019-May-08.52885395) | 0.00019115 | TDB |
period | 1718.618888899252 4.71 | 3.0688e-05 8.402e-08 | d yr |
n | .2094705244573299 | 3.7404e-09 | deg/d |
Q | 3.026513474677814 | 3.6028e-08 | au |
|
| | Orbit Determination Parameters
Additional Information
|